This demonstration page uses our WeatherBlox Daily Observations layout. Learn more.

Left ArrowRight Arrow

38.80484, -77.04692

Hourly Observations for February 4, 2016

Temp ( °F °C ) Dew Point ( °F °C ) Humidity (%) Winds ( mph kmh ) Pressure ( in mb ) Visibility ( mi km ) Precip ( " mm )
12:35 am 00:35 Cloudy with Mist and Fog 57 13.9 56 13.3 96 96 S 13 20 29.88 1012 2 3 0.00 0.03
12:52 am 00:52 Cloudy with Mist and Fog 57 13.9 57 13.9 100 100 S 9 15 29.88 1012 3 5 0.00 0.03
12:57 am 00:57 Cloudy with Drizzle 57 13.9 57 13.9 100 100 SSW 9 15 29.88 1012 3 5 0.00 0.03
1:27 am 01:27 Cloudy with Drizzle 56 13.3 55 12.8 97 97 S 8 13 29.88 1012 2 3 0.00 0.03
1:37 am 01:37 Cloudy with Drizzle 58 14.4 57 13.9 97 97 SSW 8 13 29.88 1012 2 3 0.00 0.03
1:47 am 01:47 Cloudy with Drizzle 57 14 55 13 94 94 S 7 11 29.88 1012 1 2 0.01 0.25
1:52 am 01:52 Cloudy with Drizzle 56 13.3 56 13.3 100 100 S 7 11 29.87 1011 1 2 0.01 0.25
2:28 am 02:28 Cloudy with Drizzle 55 13 55 13 100 100 S 9 15 29.88 1012 1 1 0.00 0.00
2:40 am 02:40 Mostly Cloudy with Drizzle 55 13 54 12 94 94 S 13 20 29.88 1012 1 1 0.00 0.00
2:52 am 02:52 Mostly Cloudy with Drizzle 54 12.2 54 12.2 100 100 S 10 17 29.88 1012 0 0 0.01 0.25
3:04 am 03:04 Mostly Cloudy with Drizzle 54 12 54 12 100 100 SSW 6 9 29.88 1012 1 1 0.00 0.00
3:08 am 03:08 Cloudy with Drizzle 55 13 55 13 100 100 SSW 6 9 29.88 1012 2 3 0.00 0.00
3:47 am 03:47 Cloudy with Drizzle 55 13 55 13 100 100 S 6 9 29.88 1012 2 2 0.00 0.00
3:52 am 03:52 Cloudy with Drizzle 56 13.3 56 13.3 100 100 S 6 9 29.88 1012 2 3 0.00 0.03
3:57 am 03:57 Cloudy with Drizzle 55 12.8 55 12.8 100 100 S 7 11 29.88 1012 0 0 0.00 0.03
4:24 am 04:24 Cloudy with Fog 55 13 54 12 94 94 W 5 7 29.91 1013 1 1 0.00 0.00
4:31 am 04:31 Cloudy with Light Rain 57 13.9 56 13.3 96 96 NW 12 19 29.91 1013 3 5 0.00 0.03
4:35 am 04:35 Cloudy with Light Rain 56 13.3 55 12.8 97 97 WNW 9 15 29.91 1013 9 14 0.00 0.03
4:46 am 04:46 Cloudy 55 13 54 12 94 94 WNW 10 17 29.94 1014 10 16 0.00 0.00
4:52 am 04:52 Cloudy 54 12.2 51 10.6 90 90 NW 12 19 29.93 1014 10 16 0.00 0.03
4:59 am 04:59 Cloudy 54 12.2 50 10 87 87 NW 13 20 29.94 1014 10 16 0.00 0.00
5:52 am 05:52 Cloudy 53 11.7 43 6.1 69 69 NNW 13 20 29.96 1015 10 16 0.00 0.00
6:52 am 06:52 Cloudy 51 10.6 43 6.1 74 74 NNW 14 22 30.00 1016 10 16 0.00 0.00
7:52 am 07:52 Cloudy 50 10 39 3.9 66 66 NNW 18 30 30.03 1017 10 16 0.00 0.00
8:52 am 08:52 Cloudy 49 9.4 37 2.8 64 64 N 15 24 30.07 1018 10 16 0.00 0.00
9:52 am 09:52 Cloudy 49 9.4 35 1.7 59 59 N 15 24 30.09 1019 10 16 0.00 0.00
10:52 am 10:52 Cloudy 48 8.9 34 1.1 58 58 NNW 14 22 30.11 1020 10 16 0.00 0.00
11:52 am 11:52 Cloudy 48 8.9 33 0.6 56 56 NNW 20 31 30.10 1019 10 16 0.00 0.00
12:52 pm 12:52 Cloudy 48 8.9 33 0.6 56 56 N 16 26 30.07 1018 10 16 0.00 0.00
1:52 pm 13:52 Cloudy 49 9.4 32 0 52 52 N 14 22 30.05 1018 10 16 0.00 0.00
2:52 pm 14:52 Cloudy 49 9.4 33 0.6 55 55 N 10 17 30.06 1018 10 16 0.00 0.00
3:52 pm 15:52 Cloudy 49 9.4 32 0 52 52 N 14 22 30.06 1018 10 16 0.00 0.00
4:52 pm 16:52 Cloudy 48 8.9 31 -0.6 52 52 N 12 19 30.09 1019 10 16 0.00 0.00
5:52 pm 17:52 Cloudy 48 8.9 31 -0.6 52 52 N 15 24 30.09 1019 10 16 0.00 0.00
6:52 pm 18:52 Cloudy 47 8.3 31 -0.6 54 54 NNW 9 15 30.11 1020 10 16 0.00 0.00
7:52 pm 19:52 Cloudy 46 7.8 30 -1.1 54 54 NNW 14 22 30.11 1020 10 16 0.00 0.00
8:52 pm 20:52 Cloudy 45 7.2 30 -1.1 56 56 N 16 26 30.11 1020 10 16 0.00 0.00
9:52 pm 21:52 Cloudy 44 6.7 30 -1.1 58 58 NNW 10 17 30.12 1020 10 16 0.00 0.00
10:52 pm 22:52 Cloudy 43 6.1 28 -2.2 56 56 NNW 16 26 30.12 1020 10 16 0.00 0.00
11:52 pm 23:52 Cloudy 42 5.6 27 -2.8 55 55 NNW 16 26 30.10 1019 10 16 0.00 0.00

Powered by AerisWeather